Weather History for West Point, VA

Change the Weather History Date:

Wednesday, May 14, 2014

  Actual Average (KRIC) Record (KRIC)
Temperature  
Mean Temperature 72 °F 66 °F  
Max Temperature 79 °F 77 °F 94 °F (1956)
Min Temperature 65 °F 54 °F 40 °F (1941)
Degree Days  
Heating Degree Days 0 3  
Month to date heating degree days 48  
Since 1 July heating degree days 3740  
Cooling Degree Days 7 3  
Month to date cooling degree days 34  
Year to date cooling degree days 76  
Growing Degree Days 22 (Base 50)    
Moisture  
Dew Point 65 °F    
Average Humidity 83    
Maximum Humidity 93    
Minimum Humidity 64    
Precipitation  
Precipitation 0.00 in 0.12 in 1.74 in (2011)
Month to date precipitation 1.59  
Year to date precipitation 14.70  
Snow  
Snow 0.00 in 0.00 in 0.00 in (2002)
Month to date snowfall 0.0  
Since 1 July snowfall 10.3  
Snow Depth -    
Sea Level Pressure  
Sea Level Pressure 30.17 in    
Wind  
Wind Speed 5 mph (ENE)    
Max Wind Speed 9 mph    
Max Gust Speed -    
Visibility 6 miles    
Events      
T = Trace of Precipitation, MM = Missing Value Source: NWS Daily Summary

Daily Weather History Graph

Daily Weather History Graph

Search for Another Location

Airport:

Trip Planner

Search our weather history database for the weather conditions in past years. The results will help you decide how hot, cold, wet, or windy it might be!

Date:

Astronomy

May. 14, 2014 Rise Set
Actual Time 5:58 AM EDT 8:08 PM EDT
Civil Twilight 5:29 AM EDT 8:37 PM EDT
Nautical Twilight 4:53 AM EDT 9:13 PM EDT
Astronomical Twilight 4:15 AM EDT 9:52 PM EDT
Moon 8:12 PM EDT (5/14) 5:54 AM EDT (5/14)
Length of Visible Light 15h 08m
Length of Day
14h 09m
Full, 100% of the Moon is Illuminated
May 14
Full
May 14
Full
May 21
Last Quarter
May 28
New
Jun 5
First Quarter

Hourly Weather History & Observations

Time (EDT) Temp. Dew Point Humidity Pressure Visibility Wind Dir Wind Speed Gust Speed Precip Events Conditions
12:15 AM 68.0 °F 63.0 °F 84% 30.20 in 7.0 mi NE 3.5 mph - N/A   Overcast
12:35 AM 68.0 °F 63.0 °F 84% 30.19 in 7.0 mi NE 5.8 mph - N/A   Overcast
12:55 AM 68.0 °F 63.0 °F 84% 30.18 in 5.0 mi ENE 6.9 mph - N/A   Overcast
1:15 AM 67.5 °F 62.8 °F 85% 30.17 in 5.0 mi ENE 4.6 mph - N/A   Overcast
1:35 AM 67.3 °F 62.8 °F 85% 30.17 in 5.0 mi East 8.1 mph - N/A   Overcast
2:15 AM 66.4 °F 62.6 °F 88% 30.16 in 5.0 mi East 9.2 mph - N/A   Overcast
2:35 AM 66.2 °F 62.6 °F 88% 30.16 in 2.5 mi East 5.8 mph - N/A   Overcast
2:55 AM 66.2 °F 63.0 °F 89% 30.16 in 2.5 mi ESE 4.6 mph - N/A   Overcast
3:15 AM 65.8 °F 62.8 °F 90% 30.15 in 2.5 mi East 6.9 mph - N/A   Overcast
3:35 AM 65.7 °F 62.8 °F 90% 30.16 in 2.0 mi East 4.6 mph - N/A   Overcast
3:55 AM 65.5 °F 62.8 °F 91% 30.16 in 1.8 mi East 4.6 mph - N/A   Overcast
4:15 AM 65.5 °F 62.8 °F 91% 30.16 in 1.8 mi East 4.6 mph - N/A   Overcast
4:35 AM 65.5 °F 63.0 °F 92% 30.16 in 1.0 mi East 4.6 mph - N/A   Overcast
4:55 AM 65.5 °F 63.0 °F 92% 30.17 in 1.0 mi Calm Calm - N/A   Overcast
5:15 AM 65.5 °F 63.0 °F 92% 30.17 in 1.2 mi Calm Calm - N/A   Overcast
5:35 AM 65.5 °F 63.0 °F 92% 30.17 in 1.0 mi ENE 3.5 mph - N/A   Overcast
5:55 AM 65.5 °F 63.0 °F 92% 30.18 in 1.2 mi NNE 3.5 mph - N/A   Overcast
6:15 AM 65.7 °F 63.3 °F 92% 30.18 in 0.8 mi Calm Calm - N/A   Overcast
7:15 AM 65.8 °F 63.5 °F 92% 30.20 in 0.5 mi ENE 3.5 mph - N/A   Overcast
7:35 AM 66.2 °F 63.7 °F 92% 30.21 in 0.5 mi NE 4.6 mph - N/A   Overcast
7:55 AM 66.4 °F 64.0 °F 92% 30.21 in 0.8 mi NE 4.6 mph - N/A   Overcast
8:15 AM 66.4 °F 64.2 °F 93% 30.21 in 1.0 mi Calm Calm - N/A   Overcast
8:35 AM 66.9 °F 64.6 °F 92% 30.21 in 3.0 mi ENE 3.5 mph - N/A   Overcast
8:55 AM 67.3 °F 64.9 °F 92% 30.21 in 5.0 mi NE 3.5 mph - N/A   Overcast
9:15 AM 67.5 °F 64.9 °F 92% 30.21 in 4.0 mi NE 3.5 mph - N/A   Overcast
9:35 AM 68.0 °F 65.3 °F 91% 30.21 in 4.0 mi ENE 4.6 mph - N/A   Overcast
9:55 AM 68.5 °F 65.3 °F 89% 30.22 in 3.0 mi NE 4.6 mph - N/A   Overcast
10:35 AM 69.8 °F 65.3 °F 86% 30.22 in 7.0 mi NNE 3.5 mph - N/A   Overcast
10:55 AM 70.2 °F 65.1 °F 84% 30.22 in 7.0 mi Calm Calm - N/A   Overcast
11:35 AM 71.6 °F 65.3 °F 80% 30.22 in 10.0 mi NE 5.8 mph - N/A   Overcast
11:55 AM 72.1 °F 65.3 °F 79% 30.21 in 10.0 mi NNE 5.8 mph - N/A   Overcast
12:15 PM 72.0 °F 65.3 °F 79% 30.21 in 10.0 mi ENE 5.8 mph - N/A   Overcast
12:55 PM 73.2 °F 64.8 °F 75% 30.21 in 10.0 mi East 6.9 mph - N/A   Overcast
1:15 PM 74.3 °F 64.4 °F 71% 30.20 in 10.0 mi East 6.9 mph - N/A   Overcast
1:35 PM 74.3 °F 64.6 °F 72% 30.20 in 10.0 mi East 3.5 mph - N/A   Overcast
1:55 PM 75.2 °F 65.1 °F 71% 30.20 in 10.0 mi ENE 5.8 mph - N/A   Overcast
2:15 PM 74.8 °F 65.3 °F 72% 30.19 in 10.0 mi East 8.1 mph - N/A   Overcast
2:35 PM 75.4 °F 65.3 °F 71% 30.19 in 10.0 mi East 9.2 mph - N/A   Overcast
2:55 PM 75.4 °F 65.5 °F 71% 30.19 in 10.0 mi ENE 5.8 mph - N/A   Overcast
3:15 PM 75.6 °F 65.7 °F 71% 30.19 in 7.0 mi East 5.8 mph - N/A   Overcast
3:35 PM 76.1 °F 65.5 °F 70% 30.18 in 10.0 mi NE 3.5 mph - N/A   Overcast
3:55 PM 76.6 °F 65.5 °F 68% 30.17 in 10.0 mi NE 6.9 mph - N/A   Overcast
4:15 PM 78.3 °F 65.7 °F 65% 30.16 in 10.0 mi NNE 5.8 mph - N/A   Overcast
4:35 PM 78.1 °F 66.0 °F 66% 30.16 in 10.0 mi North 8.1 mph - N/A   Scattered Clouds
4:55 PM 78.4 °F 65.8 °F 65% 30.15 in 10.0 mi ENE 5.8 mph - N/A   Clear
5:15 PM 79.0 °F 65.7 °F 64% 30.15 in 10.0 mi NE 5.8 mph - N/A   Clear
5:35 PM 77.9 °F 65.8 °F 66% 30.15 in 10.0 mi ENE 4.6 mph - N/A   Clear
5:55 PM 78.1 °F 65.8 °F 66% 30.14 in 10.0 mi ENE 5.8 mph - N/A   Clear
6:15 PM 77.4 °F 65.8 °F 67% 30.14 in 10.0 mi ENE 6.9 mph - N/A   Clear
6:35 PM 75.9 °F 66.2 °F 72% 30.13 in 10.0 mi ENE 6.9 mph - N/A   Clear
6:55 PM 74.3 °F 66.2 °F 76% 30.13 in 7.0 mi NE 5.8 mph - N/A   Clear
7:15 PM 73.4 °F 66.4 °F 79% 30.12 in 10.0 mi East 8.1 mph - N/A   Clear
7:35 PM 72.5 °F 66.2 °F 81% 30.13 in 7.0 mi East 5.8 mph - N/A   Clear
7:55 PM 71.6 °F 66.2 °F 83% 30.13 in 5.0 mi East 6.9 mph - N/A   Clear
8:15 PM 71.1 °F 66.2 °F 85% 30.13 in 7.0 mi East 6.9 mph - N/A   Scattered Clouds
8:35 PM 70.7 °F 66.2 °F 86% 30.14 in 7.0 mi East 4.6 mph - N/A   Mostly Cloudy
8:55 PM 70.7 °F 66.2 °F 86% 30.14 in 7.0 mi East 5.8 mph - N/A   Overcast
9:15 PM 69.8 °F 65.7 °F 87% 30.14 in 5.0 mi East 3.5 mph - N/A   Scattered Clouds
9:35 PM 69.3 °F 65.7 °F 88% 30.15 in 5.0 mi East 4.6 mph - N/A   Scattered Clouds
9:55 PM 68.9 °F 65.5 °F 89% 30.15 in 4.0 mi East 3.5 mph - N/A   Clear
10:15 PM 68.4 °F 65.3 °F 90% 30.15 in 4.0 mi East 5.8 mph - N/A   Clear
10:35 PM 68.9 °F 65.7 °F 89% 30.16 in 4.0 mi East 4.6 mph - N/A   Clear
10:55 PM 68.9 °F 65.8 °F 90% 30.16 in 4.0 mi ESE 3.5 mph - N/A   Mostly Cloudy
11:15 PM 68.5 °F 65.7 °F 90% 30.16 in 4.0 mi East 3.5 mph - N/A   Mostly Cloudy
11:35 PM 68.4 °F 65.7 °F 91% 30.16 in 3.0 mi ESE 3.5 mph - N/A   Scattered Clouds
11:55 PM 68.5 °F 65.8 °F 91% 30.16 in 4.0 mi ESE 3.5 mph - N/A   Clear